Location: Stillwell
(40.4602°N, 82.0928°W)
Time: 09:46:47
(UTC-04:00)

Cosmos 1980 Rocket - Pass Details

Date: 25 May 2018
Orbit: 828 x 851 km, 71.0° (Epoch: 24 June)

Event Time Altitude Azimuth Distance (km) Brightness Sun altitude
Rises 21:22:13 0° 331° (NNW) 3,403 6.7 -6.5°
Reaches altitude 10° 21:24:43 10° 327° (NNW) 2,468 5.9 -6.9°
Maximum altitude 21:30:12 53° 252° (WSW) 1,028 2.9 -7.7°
Drops below altitude 10° 21:35:41 10° 177° (S) 2,464 4.2 -8.5°
Sets 21:38:10 0° 172° (S) 3,397 4.9 -8.9°
